Showing default

PISAT, 41784

Orbit data source: Space-Track

PISAT, 41784 is a payload satellite owned by PES Univ. (IN) in SSO that was launched on Mon, 26 Sep 2016 UTC via a PSLV launch vehicle from the Sirharikota (SRI). Payload-class satellites include a variety of spacecraft equipped with specific instruments for various scientific and technological missions. These include communications satellites like Starlink; space stations such as the ISS; scientific satellites like the Hubble; Earth observation satellites from companies like Planet Labs, Umbra, and HawkEye 360; GPS; miniature CubeSats for education and research; and military/defense satellites.

Loading next visibility...
Identifier
41784, 2016-059B
Orbit
SSO
Last TLE update
7 hours ago
Origin
Manufacturer
PES Univ.
Mission
Operational Amateur Imaging
Bus & Motor
PISAT, Unknown motor
Mass
5.25 kg wet, 5.25 kg dry
Launch date (UTC)
2016-09-26 (9 years ago)
Launch vehicle
PSLV
Launch site
Sirharikota (SRI)
Object type
Payload
Rocket body
Debris
Shape & HBR
Box, 0.256 m
Radar Cross Section
0.079 m², Medium (>0.1 m² and < 1m²)

Expand to show TLE details & history

TLE from 7 hours ago
0 PISAT
1 41784U 16059B   25183.59813076  .00000683  00000-0  12668-3 0  9996
2 41784  97.8150 194.4126 0028219 240.5288 119.3101 14.67977166468439
Epoch: 2025-07-02T14:21Z
TLE epoch observation values (Epoch: 2025-07-02T14:21:18.497Z)
Latitude
-0.00011°
Longitude
58.20861°
Altitude
680.318 km
Speed
7.511 km/s
True Right ascension
12h 57m 39s
True Declination
0° 00' 00"
Sunlit
Object was in daylight at epoch
Visualization orbit readout
Latitude
26.124°
Longitude
54.63502°
Altitude
687.389 km
Speed
7.506 km/s
Apparent Right ascension
15h 53m 31s
Apparent Declination
-9° 41' 08"
Sunlit
Object is in daylight
Visualization observer readout
Local Sidereal Time
08:45:13
Azimuth
86.56° E
Elevation
-19.263°
Doppler factor
1
Orbital elements
Apogee altitude
684.46 km
Perigee altitude
644.712 km
Semi-major axis
7,042.723 km
Eccentricity
0.00282
Inclination
97.815°
RAAN
194.4126°
Arg. of periapsis
240.5288°
True anomaly
Unknown
Mean anomaly
119.3101°
Eccentric anomaly
Unknown
Mean motion
3.67225 °/min
Orbital period
98.03 mins
BSTAR
0.00012668
Loading maneuver chart data...
Loading SW <> Apogee altitude chart data...
Loading historical data...
Loading historical data...
Loading historical data...
Loading historical data...
Loading historical data...
Loading historical data...
Loading historical data...

PISAT Visibility forecast

Observer location: undefined°, undefined°

Span
Click to sort rows by Start time (UTC) header in descending order
Start Az.
Max El. time (UTC)
Max El. Az.
Max El.
End time (UTC)
End Az.
7 mins2025-07-03 00:18:06.140Z141.425° SSE2025-07-03 00:22:06.140Z52.914° ENE35.35°2025-07-03 00:25:06.140Z4.027° NNE
4 mins2025-07-03 01:57:06.140Z241.33° WSW2025-07-03 01:59:06.140Z271.017° WNW15.909°2025-07-03 02:01:06.140Z299.377° NW
7 mins2025-07-03 13:50:06.140Z3.974° NNE2025-07-03 13:53:06.140Z316.504° NNW41.591°2025-07-03 13:57:06.140Z205.611° SW
|